This demonstration page uses our WeatherBlox Daily Observations layout. Learn more.

Hourly Observations for October 24, 2019

Temp ( °F °C ) Dew Point ( °F °C ) Humidity (%) Winds ( mph kmh ) Pressure ( in mb ) Visibility ( mi km ) Precip ( " mm )
12:15 am 00:15 Mostly Cloudy 34 1.2 29 -1.5 82 82 N 7 11 30.42 1030 10 16.0934 0 0
12:35 am 00:35 Mostly Cloudy 34 1.2 29 -1.9 80 80 N 9 15 30.42 1030 10 16.0934 0 0
12:55 am 00:55 Cloudy 35 1.4 28 -2 78 78 N 9 15 30.42 1030 10 16.0934 0 0
1:15 am 01:15 Cloudy 35 1.7 28 -2 77 77 N 8 13 30.45 1031 10 16.0934 0 0
1:35 am 01:35 Cloudy 36 2 28 -2 75 75 N 10 17 30.42 1030 10 16.0934 0 0
1:55 am 01:55 Cloudy 36 2 28 -2.5 72 72 N 12 19 30.42 1030 10 16.0934 0 0
2:15 am 02:15 Mostly Cloudy 35 1.6 27 -3 72 72 N 9 15 30.45 1031 10 16.0934 0 0
2:35 am 02:35 Mostly Cloudy 35 1.5 27 -3 72 72 N 7 11 30.45 1031 10 16.0934 0 0
2:55 am 02:55 Cloudy 34 1.3 26 -3.5 71 71 N 8 13 30.45 1031 10 16.0934 0 0
3:15 am 03:15 Mostly Cloudy 34 1.1 26 -3.5 72 72 N 8 13 30.45 1031 10 16.0934 0 0
3:35 am 03:35 Clear 33 0.7 25 -3.7 73 73 N 7 11 30.45 1031 10 16.0934 0 0
3:55 am 03:55 Clear 32 0.1 25 -3.9 75 75 N 7 11 30.42 1030 10 16.0934 0 0
4:15 am 04:15 Clear 32 0.2 25 -3.8 75 75 N 7 11 30.45 1031 10 16.0934 0 0
4:35 am 04:35 Clear 32 0 25 -3.7 76 76 NNW 3 6 30.45 1031 10 16.0934 0 0
4:55 am 04:55 Clear 32 0 25 -3.8 76 76 NNW 6 9 30.45 1031 10 16.0934 0 0
5:15 am 05:15 Clear 32 0 25 -4 75 75 NNW 6 9 30.45 1031 10 16.0934 0 0
5:35 am 05:35 Clear 32 -0.2 25 -4 76 76 NNW 9 15 30.45 1031 10 16.0934 0 0
5:55 am 05:55 Clear 31 -0.5 24 -4.2 76 76 NNW 8 13 30.48 1032 10 16.0934 0 0
6:15 am 06:15 Clear 31 -0.6 24 -4.3 76 76 NNW 7 11 30.48 1032 10 16.0934 0 0
6:35 am 06:35 Clear 30 -1 24 -4.3 79 79 NW 10 17 30.5 1033 10 16.0934 0 0
6:55 am 06:55 Clear 30 -1.2 24 -4.3 80 80 NNW 8 13 30.5 1033 10 16.0934 0 0
7:15 am 07:15 Clear 29 -1.5 24 -4.4 81 81 NNW 7 11 30.5 1033 10 16.0934 0 0
7:35 am 07:35 Clear 29 -1.5 24 -4.5 80 80 NW 6 9 30.5 1033 10 16.0934 0 0
7:55 am 07:55 Clear 29 -1.6 24 -4.4 81 81 NW 6 9 30.53 1034 10 16.0934 0 0
8:15 am 08:15 Sunny 29 -1.5 24 -4.2 82 82 NNW 7 11 30.53 1034 10 16.0934 0 0
8:35 am 08:35 Sunny 29 -1.6 24 -4.3 82 82 NNW 5 7 30.53 1034 10 16.0934 0 0
8:55 am 08:55 Sunny 29 -1.6 24 -4.2 83 83 NNW 3 6 30.53 1034 10 16.0934 0 0
9:15 am 09:15 Sunny 31 -0.6 25 -3.9 79 79 NNW 8 13 30.56 1035 10 16.0934 0 0
9:35 am 09:35 Sunny 32 0.1 26 -3.6 76 76 NNW 9 15 30.56 1035 10 16.0934 0 0
9:55 am 09:55 Sunny 34 1.1 26 -3.5 72 72 NNW 9 15 30.53 1034 10 16.0934 0 0
10:15 am 10:15 Sunny 35 1.5 26 -3.6 69 69 NNW 10 17 30.53 1034 10 16.0934 0 0
10:35 am 10:35 Sunny 37 2.5 26 -3.5 65 65 N 12 19 30.53 1034 10 16.0934 0 0
10:55 am 10:55 Sunny 38 3.1 26 -3.6 62 62 N 10 17 30.53 1034 10 16.0934 0 0
11:15 am 11:15 Sunny 39 4.1 25 -4.1 56 56 NNE 7 11 30.5 1033 10 16.0934 0 0
11:35 am 11:35 Sunny 40 4.6 23 -4.8 51 51 N 6 9 30.5 1033 10 16.0934 0 0
11:55 am 11:55 Sunny 41 5 24 -4.4 51 51 N 6 9 30.5 1033 10 16.0934 0 0
12:15 pm 12:15 Sunny 41 5.1 23 -4.9 49 49 NNE 7 11 30.5 1033 10 16.0934 0 0
12:35 pm 12:35 Sunny 42 5.8 23 -5 46 46 N 6 9 30.5 1033 10 16.0934 0 0
12:55 pm 12:55 Sunny 43 6 22 -5.3 45 45 Calm 30.5 1033 10 16.0934 0 0
1:15 pm 13:15 Sunny 44 6.6 22 -5.4 42 42 N 6 9 30.45 1031 10 16.0934 0 0
1:35 pm 13:35 Sunny 44 6.6 22 -5.4 42 42 NE 13 20 30.45 1031 10 16.0934 0 0
1:55 pm 13:55 Sunny 45 7.1 23 -5.2 42 42 NNE 6 9 30.42 1030 10 16.0934 0 0
2:15 pm 14:15 Sunny 46 7.8 23 -5.1 40 40 N 8 13 30.42 1030 10 16.0934 0 0
2:35 pm 14:35 Sunny 46 7.8 23 -4.9 41 41 N 10 17 30.39 1029 10 16.0934 0 0
2:55 pm 14:55 Sunny 46 8 24 -4.7 41 41 NNW 12 19 30.36 1028 10 16.0934 0 0
3:15 pm 15:15 Sunny 47 8.4 24 -4.3 41 41 NNE 10 17 30.36 1028 10 16.0934 0 0
3:35 pm 15:35 Sunny 47 8.6 24 -4.2 40 40 NNW 9 15 30.36 1028 10 16.0934 0 0
3:55 pm 15:55 Sunny 48 9 25 -4 40 40 NW 8 13 30.33 1027 10 16.0934 0 0
4:15 pm 16:15 Sunny 48 8.7 24 -4.2 40 40 N 7 11 30.36 1028 10 16.0934 0 0
4:35 pm 16:35 Sunny 48 8.9 25 -3.9 41 41 NNE 7 11 30.33 1027 10 16.0934 0 0
4:55 pm 16:55 Sunny 48 9.1 25 -4 40 40 N 6 9 30.33 1027 10 16.0934 0 0
5:15 pm 17:15 Sunny 48 8.7 25 -4 41 41 NNW 3 6 30.39 1029 10 16.0934 0 0
5:35 pm 17:35 Sunny 47 8.5 25 -4 41 41 Calm 30.39 1029 10 16.0934 0 0
5:55 pm 17:55 Sunny 47 8.2 24 -4.2 42 42 Calm 30.39 1029 10 16.0934 0 0
6:15 pm 18:15 Sunny 46 7.6 26 -3.5 46 46 Calm 30.39 1029 10 16.0934 0 0
6:35 pm 18:35 Sunny 43 6 25 -4.1 49 49 Calm 30.39 1029 10 16.0934 0 0
6:55 pm 18:55 Clear 42 5.4 24 -4.4 50 50 Calm 30.42 1030 10 16.0934 0 0
7:15 pm 19:15 Clear 42 5.3 24 -4.3 50 50 Calm 30.42 1030 10 16.0934 0 0
7:35 pm 19:35 Clear 38 3.6 24 -4.6 55 55 Calm 30.42 1030 10 16.0934 0 0
7:55 pm 19:55 Clear 36 2 22 -5.3 59 59 Calm 30.45 1031 7 11.26538 0 0
8:15 pm 20:15 Clear 37 2.8 24 -4.7 58 58 Calm 30.42 1030 7 11.26538 0 0
8:35 pm 20:35 Clear 36 2 24 -4.7 62 62 Calm 30.45 1031 7 11.26538 0 0
8:55 pm 20:55 Clear 35 1.8 23 -4.9 61 61 SSE 3 6 30.45 1031 10 16.0934 0 0
9:15 pm 21:15 Clear 35 1.5 23 -4.9 63 63 S 3 6 30.45 1031 10 16.0934 0 0
9:35 pm 21:35 Clear 35 1.8 23 -5.1 61 61 S 3 6 30.45 1031 10 16.0934 0 0
9:55 pm 21:55 Clear 32 0 21 -5.9 65 65 SSW 5 7 30.45 1031 10 16.0934 0 0
10:15 pm 22:15 Clear 34 1.2 23 -5.2 63 63 SSW 3 6 30.45 1031 10 16.0934 0 0
10:35 pm 22:35 Clear 34 1.2 23 -5 64 64 SSW 3 6 30.45 1031 10 16.0934 0 0
10:55 pm 22:55 Clear 34 1 23 -5.1 64 64 SW 3 6 30.45 1031 10 16.0934 0 0
11:15 pm 23:15 Clear 34 1 23 -5 65 65 SSW 5 7 30.45 1031 10 16.0934 0 0
11:35 pm 23:35 Clear 33 0.6 23 -5 66 66 SSW 5 7 30.45 1031 10 16.0934 0 0
11:55 pm 23:55 Clear 33 0.6 23 -5 66 66 SW 5 7 30.45 1031 10 16.0934 0 0

Powered by AerisWeather